Location: Goll?ig?dem
(16.6773°N, 80.7332°E)
Time: 06:21:13
(UTC+00:00)

Cosmos 2360 Rocket - Pass Details

Date: 21 April 2021
Orbit: 833 x 845 km, 71.0° (Epoch: 06 May)

Event Time Altitude Azimuth Distance (km) Brightness Sun altitude
Rises 14:49:57 0° 327° (NNW) 3,386 6.2 -27.2°
Reaches altitude 10° 14:52:39 10° 317° (NW) 2,449 5.4 -27.8°
Maximum altitude 14:57:29 30° 257° (WSW) 1,450 3.8 -28.9°
Enters shadow 15:00:49 17° 207° (SSW) 1,988 4.1 -29.6°
